Time,TemperatureF,DewpointF,PressureIn,WindDirection,WindDirectionDegrees,WindSpeedMPH,WindSpeedGustMPH,Humidity,HourlyPrecipIn,Conditions,Clouds,dailyrainin,SoftwareType,DateUTC
2013-05-30 00:01:00,72.9,64.8,30.03,SW,219,3.0,6.0,75,0.00,,OVC OVC///CB,0.00,WUHU216DAVISVP2,2013-05-30 04:01:00,
2013-05-30 00:06:00,72.8,64.7,30.03,SSW,193,2.0,6.0,75,0.00,,OVC OVC///CB,0.00,WUHU216DAVISVP2,2013-05-30 04:06:00,
2013-05-30 00:11:00,72.6,64.9,30.03,SW,233,6.0,6.0,76,0.00,,OVC OVC///CB,0.00,WUHU216DAVISVP2,2013-05-30 04:11:00,
2013-05-30 00:16:00,72.6,64.9,30.03,SW,230,0.0,6.0,76,0.00,,OVC OVC///CB,0.00,WUHU216DAVISVP2,2013-05-30 04:16:00,
2013-05-30 00:21:00,72.4,64.7,30.04,SW,215,3.0,6.0,76,0.00,,OVC OVC///CB,0.00,WUHU216DAVISVP2,2013-05-30 04:21:00,
2013-05-30 00:26:00,72.3,64.6,30.04,SSW,197,2.0,5.0,76,0.00,,OVC OVC///CB,0.00,WUHU216DAVISVP2,2013-05-30 04:26:00,
2013-05-30 00:31:00,72.2,64.9,30.04,SSW,208,0.0,5.0,77,0.00,,OVC OVC///CB,0.00,WUHU216DAVISVP2,2013-05-30 04:31:00,
2013-05-30 00:36:00,72.1,64.8,30.04,SW,230,0.0,5.0,77,0.00,,OVC OVC///CB,0.00,WUHU216DAVISVP2,2013-05-30 04:36:00,
2013-05-30 00:41:00,72.0,64.7,30.04,SW,231,2.0,5.0,77,0.00,,OVC OVC///CB,0.00,WUHU216DAVISVP2,2013-05-30 04:41:00,
2013-05-30 00:46:00,71.9,64.6,30.04,SW,233,1.0,3.0,77,0.00,,OVC OVC///CB,0.00,WUHU216DAVISVP2,2013-05-30 04:46:00,
2013-05-30 00:51:00,71.9,64.6,30.04,SSW,203,1.0,5.0,77,0.00,,OVC OVC///CB,0.00,WUHU216DAVISVP2,2013-05-30 04:51:00,
2013-05-30 00:56:00,71.8,64.5,30.03,SSW,212,0.0,5.0,77,0.00,,OVC OVC///CB,0.00,WUHU216DAVISVP2,2013-05-30 04:56:00,
2013-05-30 01:01:00,71.6,64.6,30.03,SSW,203,0.0,5.0,78,0.00,,OVC OVC///CB,0.00,WUHU216DAVISVP2,2013-05-30 05:01:00,
2013-05-30 01:06:00,71.4,64.4,30.03,SW,226,0.0,5.0,78,0.00,,OVC OVC///CB,0.00,WUHU216DAVISVP2,2013-05-30 05:06:00,
2013-05-30 01:11:00,71.1,64.5,30.04,SSW,208,0.0,2.0,79,0.00,,OVC OVC///CB,0.00,WUHU216DAVISVP2,2013-05-30 05:11:00,
2013-05-30 01:16:00,71.0,64.4,30.04,SSW,208,0.0,1.0,79,0.00,,OVC OVC///CB,0.00,WUHU216DAVISVP2,2013-05-30 05:16:00,
2013-05-30 01:21:00,70.8,64.5,30.04,SSW,208,0.0,1.0,80,0.00,,OVC OVC///CB,0.00,WUHU216DAVISVP2,2013-05-30 05:21:00,
2013-05-30 01:26:00,70.5,64.3,30.04,SSW,208,0.0,1.0,80,0.00,,OVC OVC///CB,0.00,WUHU216DAVISVP2,2013-05-30 05:26:00,
2013-05-30 01:31:00,70.3,64.4,30.04,SSW,208,0.0,1.0,81,0.00,,OVC OVC///CB,0.00,WUHU216DAVISVP2,2013-05-30 05:31:00,
2013-05-30 01:36:00,70.2,64.3,30.04,SSW,200,0.0,1.0,81,0.00,,OVC OVC///CB,0.00,WUHU216DAVISVP2,2013-05-30 05:36:00,
2013-05-30 01:41:00,70.1,64.2,30.04,SSW,203,0.0,1.0,81,0.00,,OVC OVC///CB,0.00,WUHU216DAVISVP2,2013-05-30 05:41:00,
2013-05-30 01:46:00,70.0,64.1,30.04,SSW,203,0.0,1.0,81,0.00,,OVC OVC///CB,0.00,WUHU216DAVISVP2,2013-05-30 05:46:00,
2013-05-30 01:51:00,69.8,64.3,30.05,SSW,203,0.0,1.0,82,0.00,,OVC OVC///CB,0.00,WUHU216DAVISVP2,2013-05-30 05:51:00,
2013-05-30 01:56:00,69.6,64.1,30.05,South,190,1.0,1.0,82,0.00,,OVC OVC///CB,0.00,WUHU216DAVISVP2,2013-05-30 05:56:00,
2013-05-30 02:01:00,69.6,64.1,30.05,South,169,1.0,1.0,82,0.00,,OVC OVC///CB,0.00,WUHU216DAVISVP2,2013-05-30 06:01:00,
2013-05-30 02:06:00,69.8,64.3,30.05,SSW,200,1.0,2.0,82,0.00,,OVC OVC///CB,0.00,WUHU216DAVISVP2,2013-05-30 06:06:00,
2013-05-30 02:11:00,69.9,64.3,30.05,SSW,204,0.0,2.0,82,0.00,,OVC OVC///CB,0.00,WUHU216DAVISVP2,2013-05-30 06:11:00,
2013-05-30 02:43:00,69.4,64.2,30.06,SSW,195,0.0,1.0,83,0.00,,OVC OVC///CB,0.00,WUHU216DAVISVP2,2013-05-30 06:43:00,
2013-05-30 02:48:00,69.3,64.1,30.06,SSW,195,0.0,1.0,83,0.00,,OVC OVC///CB,0.00,WUHU216DAVISVP2,2013-05-30 06:48:00,
2013-05-30 02:53:00,68.9,64.0,30.06,SSW,195,0.0,1.0,84,0.00,,OVC OVC///CB,0.00,WUHU216DAVISVP2,2013-05-30 06:53:00,
2013-05-30 02:58:00,68.7,64.2,30.06,SSW,195,0.0,1.0,85,0.00,,OVC OVC///CB,0.00,WUHU216DAVISVP2,2013-05-30 06:58:00,
2013-05-30 03:03:00,68.5,64.0,30.06,SSW,195,0.0,0.0,85,0.00,,OVC OVC///CB,0.00,WUHU216DAVISVP2,2013-05-30 07:03:00,
2013-05-30 03:08:00,68.3,64.1,30.06,SSW,195,0.0,0.0,86,0.00,,OVC OVC///CB,0.00,WUHU216DAVISVP2,2013-05-30 07:08:00,
2013-05-30 03:13:00,68.1,63.9,30.06,SSW,195,0.0,0.0,86,0.00,,OVC OVC///CB,0.00,WUHU216DAVISVP2,2013-05-30 07:13:00,
2013-05-30 03:18:00,67.9,63.7,30.07,SSW,195,0.0,0.0,86,0.00,,OVC OVC///CB,0.00,WUHU216DAVISVP2,2013-05-30 07:18:00,
2013-05-30 03:23:00,67.5,63.3,30.07,SSW,195,0.0,0.0,86,0.00,,OVC OVC///CB,0.00,WUHU216DAVISVP2,2013-05-30 07:23:00,
2013-05-30 03:28:00,67.1,63.2,30.07,SSW,195,0.0,0.0,87,0.00,,OVC OVC///CB,0.00,WUHU216DAVISVP2,2013-05-30 07:28:00,
2013-05-30 03:33:00,66.7,63.2,30.07,SSW,195,0.0,0.0,88,0.00,,OVC OVC///CB,0.00,WUHU216DAVISVP2,2013-05-30 07:33:00,
2013-05-30 03:38:00,66.4,62.9,30.07,SSW,195,0.0,0.0,88,0.00,,OVC OVC///CB,0.00,WUHU216DAVISVP2,2013-05-30 07:38:00,
2013-05-30 03:43:00,66.2,63.0,30.07,SSW,195,0.0,0.0,89,0.00,,OVC OVC///CB,0.00,WUHU216DAVISVP2,2013-05-30 07:43:00,
2013-05-30 03:48:00,65.9,63.0,30.07,SSW,195,0.0,0.0,90,0.00,,OVC OVC///CB,0.00,WUHU216DAVISVP2,2013-05-30 07:48:00,
2013-05-30 03:53:00,65.6,63.0,30.07,SSW,196,0.0,0.0,91,0.00,,OVC OVC///CB,0.00,WUHU216DAVISVP2,2013-05-30 07:53:00,
2013-05-30 03:58:00,65.6,63.0,30.07,SSW,195,0.0,0.0,91,0.00,,OVC OVC///CB,0.00,WUHU216DAVISVP2,2013-05-30 07:58:00,
2013-05-30 04:03:00,65.3,62.7,30.07,SSW,195,0.0,0.0,91,0.00,,OVC OVC///CB,0.00,WUHU216DAVISVP2,2013-05-30 08:03:00,
2013-05-30 04:08:00,65.2,62.9,30.07,SSW,195,0.0,0.0,92,0.00,,OVC OVC///CB,0.00,WUHU216DAVISVP2,2013-05-30 08:08:00,
2013-05-30 04:13:00,65.2,62.9,30.07,SSW,195,0.0,0.0,92,0.00,,OVC OVC///CB,0.00,WUHU216DAVISVP2,2013-05-30 08:13:00,
2013-05-30 04:18:00,65.0,62.7,30.07,SSW,195,0.0,0.0,92,0.00,,OVC OVC///CB,0.00,WUHU216DAVISVP2,2013-05-30 08:18:00,
2013-05-30 04:23:00,64.9,62.6,30.08,SSW,195,0.0,0.0,92,0.00,,OVC OVC///CB,0.00,WUHU216DAVISVP2,2013-05-30 08:23:00,
2013-05-30 04:28:00,64.9,62.6,30.08,SSW,195,0.0,0.0,92,0.00,,OVC OVC///CB,0.00,WUHU216DAVISVP2,2013-05-30 08:28:00,
2013-05-30 04:33:00,65.0,62.7,30.08,SSW,195,0.0,0.0,92,0.00,,OVC OVC///CB,0.00,WUHU216DAVISVP2,2013-05-30 08:33:00,
2013-05-30 04:38:00,64.9,62.6,30.08,SSW,195,0.0,0.0,92,0.00,,OVC OVC///CB,0.00,WUHU216DAVISVP2,2013-05-30 08:38:00,
2013-05-30 04:43:00,64.9,62.9,30.08,SSW,195,0.0,0.0,93,0.00,,OVC OVC///CB,0.00,WUHU216DAVISVP2,2013-05-30 08:43:00,
2013-05-30 04:48:00,64.8,62.8,30.08,SSW,195,0.0,0.0,93,0.00,,OVC OVC///CB,0.00,WUHU216DAVISVP2,2013-05-30 08:48:00,
2013-05-30 04:53:00,64.7,62.7,30.08,SSW,196,0.0,0.0,93,0.00,,OVC OVC///CB,0.00,WUHU216DAVISVP2,2013-05-30 08:53:00,
2013-05-30 04:58:00,64.9,62.9,30.08,SSW,196,0.0,0.0,93,0.00,,OVC OVC///CB,0.00,WUHU216DAVISVP2,2013-05-30 08:58:00,
2013-05-30 05:03:00,65.0,63.0,30.08,SSW,195,0.0,0.0,93,0.00,,OVC OVC///CB,0.00,WUHU216DAVISVP2,2013-05-30 09:03:00,
2013-05-30 05:08:00,65.0,62.7,30.08,SSW,195,0.0,0.0,92,0.00,,OVC OVC///CB,0.00,WUHU216DAVISVP2,2013-05-30 09:08:00,
2013-05-30 05:13:00,64.8,62.8,30.08,SSW,195,0.0,0.0,93,0.00,,OVC OVC///CB,0.00,WUHU216DAVISVP2,2013-05-30 09:13:00,
2013-05-30 05:18:00,64.7,62.7,30.08,SSW,195,0.0,0.0,93,0.00,,OVC OVC///CB,0.00,WUHU216DAVISVP2,2013-05-30 09:18:00,
2013-05-30 05:23:00,64.7,62.7,30.08,SSW,195,0.0,0.0,93,0.00,,OVC OVC///CB,0.00,WUHU216DAVISVP2,2013-05-30 09:23:00,
2013-05-30 05:28:00,64.7,62.7,30.08,SSW,195,0.0,0.0,93,0.00,,OVC OVC///CB,0.00,WUHU216DAVISVP2,2013-05-30 09:28:00,
2013-05-30 05:33:00,64.6,62.6,30.08,SSW,195,0.0,0.0,93,0.00,,OVC OVC///CB,0.00,WUHU216DAVISVP2,2013-05-30 09:33:00,
2013-05-30 05:38:00,64.5,62.5,30.08,SSW,195,0.0,0.0,93,0.00,,OVC OVC///CB,0.00,WUHU216DAVISVP2,2013-05-30 09:38:00,
2013-05-30 05:43:00,64.5,62.5,30.08,SSW,195,0.0,0.0,93,0.00,,OVC OVC///CB,0.00,WUHU216DAVISVP2,2013-05-30 09:43:00,
2013-05-30 05:48:00,64.3,62.3,30.08,SSW,195,0.0,0.0,93,0.00,,OVC OVC///CB,0.00,WUHU216DAVISVP2,2013-05-30 09:48:00,
2013-05-30 05:53:00,64.3,62.6,30.08,SSW,195,0.0,0.0,94,0.00,,OVC OVC///CB,0.00,WUHU216DAVISVP2,2013-05-30 09:53:00,
2013-05-30 05:58:00,64.2,62.5,30.08,SSW,195,0.0,0.0,94,0.00,,OVC OVC///CB,0.00,WUHU216DAVISVP2,2013-05-30 09:58:00,
2013-05-30 06:03:00,64.1,62.4,30.08,SSW,195,0.0,0.0,94,0.00,,OVC OVC///CB,0.00,WUHU216DAVISVP2,2013-05-30 10:03:00,
2013-05-30 06:08:00,64.2,62.5,30.08,SSW,195,0.0,0.0,94,0.00,,OVC OVC///CB,0.00,WUHU216DAVISVP2,2013-05-30 10:08:00,
2013-05-30 06:13:00,64.1,62.4,30.08,SSW,195,0.0,0.0,94,0.00,,OVC OVC///CB,0.00,WUHU216DAVISVP2,2013-05-30 10:13:00,
2013-05-30 06:18:00,64.1,62.4,30.08,SSW,195,0.0,0.0,94,0.00,,OVC OVC///CB,0.00,WUHU216DAVISVP2,2013-05-30 10:18:00,
2013-05-30 06:23:00,64.1,62.4,30.09,SSW,195,0.0,0.0,94,0.00,,OVC OVC///CB,0.00,WUHU216DAVISVP2,2013-05-30 10:23:00,
2013-05-30 06:28:00,64.3,62.9,30.09,SSW,195,0.0,0.0,95,0.00,,OVC OVC///CB,0.00,WUHU216DAVISVP2,2013-05-30 10:28:00,
2013-05-30 06:33:00,64.5,62.8,30.09,SSW,195,0.0,0.0,94,0.00,,OVC OVC///CB,0.00,WUHU216DAVISVP2,2013-05-30 10:33:00,
2013-05-30 06:38:00,64.8,63.1,30.09,SW,226,0.0,1.0,94,0.00,,OVC OVC///CB,0.00,WUHU216DAVISVP2,2013-05-30 10:38:00,
2013-05-30 06:43:00,65.4,63.7,30.09,SSW,195,0.0,1.0,94,0.00,,OVC OVC///CB,0.00,WUHU216DAVISVP2,2013-05-30 10:43:00,
2013-05-30 06:48:00,66.0,63.7,30.09,SSW,201,0.0,1.0,92,0.00,,OVC OVC///CB,0.00,WUHU216DAVISVP2,2013-05-30 10:48:00,
2013-05-30 06:53:00,66.5,63.9,30.09,SW,221,0.0,2.0,91,0.00,,OVC OVC///CB,0.00,WUHU216DAVISVP2,2013-05-30 10:53:00,
2013-05-30 06:58:00,66.9,64.3,30.09,South,181,0.0,2.0,91,0.00,,OVC OVC///CB,0.00,WUHU216DAVISVP2,2013-05-30 10:58:00,
2013-05-30 07:03:00,67.3,64.4,30.09,SSW,193,0.0,2.0,90,0.00,,OVC OVC///CB,0.00,WUHU216DAVISVP2,2013-05-30 11:03:00,
2013-05-30 07:08:00,67.8,64.9,30.09,SSW,193,1.0,2.0,90,0.00,,OVC OVC///CB,0.00,WUHU216DAVISVP2,2013-05-30 11:08:00,
2013-05-30 07:13:00,68.3,65.0,30.09,SSW,203,0.0,1.0,89,0.00,,OVC OVC///CB,0.00,WUHU216DAVISVP2,2013-05-30 11:13:00,
2013-05-30 07:18:00,68.8,65.2,30.09,SSW,203,0.0,1.0,88,0.00,,OVC OVC///CB,0.00,WUHU216DAVISVP2,2013-05-30 11:18:00,
2013-05-30 07:23:00,69.6,65.7,30.10,SSW,197,0.0,2.0,87,0.00,,OVC OVC///CB,0.00,WUHU216DAVISVP2,2013-05-30 11:23:00,
2013-05-30 07:28:00,70.3,66.1,30.10,South,188,0.0,2.0,86,0.00,,OVC OVC///CB,0.00,WUHU216DAVISVP2,2013-05-30 11:28:00,
2013-05-30 07:33:00,70.6,66.0,30.10,SW,222,1.0,2.0,85,0.00,,OVC OVC///CB,0.00,WUHU216DAVISVP2,2013-05-30 11:33:00,
2013-05-30 07:38:00,71.0,66.1,30.10,South,173,1.0,3.0,84,0.00,,OVC OVC///CB,0.00,WUHU216DAVISVP2,2013-05-30 11:38:00,
2013-05-30 07:43:00,71.4,66.2,30.10,SSW,194,2.0,4.0,83,0.00,,OVC OVC///CB,0.00,WUHU216DAVISVP2,2013-05-30 11:43:00,
2013-05-30 07:48:00,71.7,66.4,30.11,SE,143,3.0,5.0,83,0.00,,OVC OVC///CB,0.00,WUHU216DAVISVP2,2013-05-30 11:48:00,
2013-05-30 07:53:00,72.1,66.5,30.10,SSW,194,2.0,6.0,82,0.00,,OVC OVC///CB,0.00,WUHU216DAVISVP2,2013-05-30 11:53:00,
2013-05-30 07:58:00,72.4,66.5,30.11,SSW,195,3.0,7.0,81,0.00,,OVC OVC///CB,0.00,WUHU216DAVISVP2,2013-05-30 11:58:00,
2013-05-30 08:03:00,72.7,66.7,30.11,South,180,3.0,7.0,81,0.00,,OVC OVC///CB,0.00,WUHU216DAVISVP2,2013-05-30 12:03:00,
2013-05-30 08:08:00,73.0,67.0,30.11,SSW,195,4.0,7.0,81,0.00,,OVC OVC///CB,0.00,WUHU216DAVISVP2,2013-05-30 12:08:00,
2013-05-30 08:13:00,73.4,67.1,30.11,SSW,210,0.0,7.0,80,0.00,,OVC OVC///CB,0.00,WUHU216DAVISVP2,2013-05-30 12:13:00,
2013-05-30 08:18:00,74.0,67.7,30.11,WSW,242,1.0,5.0,80,0.00,,OVC OVC///CB,0.00,WUHU216DAVISVP2,2013-05-30 12:18:00,
2013-05-30 08:23:00,74.2,67.9,30.12,SE,124,2.0,4.0,80,0.00,,OVC OVC///CB,0.00,WUHU216DAVISVP2,2013-05-30 12:23:00,
2013-05-30 08:28:00,74.7,68.0,30.12,SSW,212,3.0,5.0,79,0.00,,OVC OVC///CB,0.00,WUHU216DAVISVP2,2013-05-30 12:28:00,
2013-05-30 08:33:00,74.7,67.6,30.12,South,186,3.0,6.0,78,0.00,,OVC OVC///CB,0.00,WUHU216DAVISVP2,2013-05-30 12:33:00,
2013-05-30 08:38:00,74.8,67.7,30.12,WSW,249,2.0,6.0,78,0.00,,OVC OVC///CB,0.00,WUHU216DAVISVP2,2013-05-30 12:38:00,
2013-05-30 08:43:00,74.9,67.8,30.12,SSW,195,3.0,6.0,78,0.00,,OVC OVC///CB,0.00,WUHU216DAVISVP2,2013-05-30 12:43:00,
2013-05-30 08:48:00,74.9,67.8,30.13,SW,236,2.0,7.0,78,0.00,,OVC OVC///CB,0.00,WUHU216DAVISVP2,2013-05-30 12:48:00,
2013-05-30 08:53:00,75.1,68.4,30.13,South,190,4.0,7.0,79,0.00,,OVC OVC///CB,0.00,WUHU216DAVISVP2,2013-05-30 12:53:00,
2013-05-30 08:58:00,75.6,68.9,30.13,ESE,120,3.0,7.0,79,0.00,,OVC OVC///CB,0.00,WUHU216DAVISVP2,2013-05-30 12:58:00,
2013-05-30 09:03:00,76.1,69.0,30.13,SW,228,0.0,5.0,78,0.00,,OVC OVC///CB,0.00,WUHU216DAVISVP2,2013-05-30 13:03:00,
2013-05-30 09:08:00,76.9,69.1,30.13,WSW,238,5.0,5.0,76,0.00,,OVC OVC///CB,0.00,WUHU216DAVISVP2,2013-05-30 13:08:00,
2013-05-30 09:13:00,77.3,69.1,30.13,SW,228,4.0,6.0,75,0.00,,OVC OVC///CB,0.00,WUHU216DAVISVP2,2013-05-30 13:13:00,
2013-05-30 09:18:00,77.3,69.1,30.13,SW,224,4.0,12.0,75,0.00,,OVC OVC///CB,0.00,WUHU216DAVISVP2,2013-05-30 13:18:00,
2013-05-30 09:23:00,77.2,68.6,30.13,SW,233,3.0,12.0,74,0.00,,OVC OVC///CB,0.00,WUHU216DAVISVP2,2013-05-30 13:23:00,
2013-05-30 09:28:00,77.2,68.2,30.13,WSW,246,5.0,11.0,73,0.00,,OVC OVC///CB,0.00,WUHU216DAVISVP2,2013-05-30 13:28:00,
2013-05-30 09:33:00,77.6,68.2,30.13,SW,231,6.0,11.0,72,0.00,,OVC OVC///CB,0.00,WUHU216DAVISVP2,2013-05-30 13:33:00,
2013-05-30 09:38:00,77.5,68.1,30.13,WSW,248,0.0,12.0,72,0.00,,OVC OVC///CB,0.00,WUHU216DAVISVP2,2013-05-30 13:38:00,
2013-05-30 09:43:00,77.6,68.2,30.13,SSW,195,1.0,12.0,72,0.00,,OVC OVC///CB,0.00,WUHU216DAVISVP2,2013-05-30 13:43:00,
2013-05-30 09:48:00,77.7,67.9,30.13,SE,131,1.0,11.0,71,0.00,,OVC OVC///CB,0.00,WUHU216DAVISVP2,2013-05-30 13:48:00,
2013-05-30 09:53:00,77.8,68.0,30.13,WSW,253,4.0,11.0,71,0.00,,OVC OVC///CB,0.00,WUHU216DAVISVP2,2013-05-30 13:53:00,
2013-05-30 09:58:00,77.9,68.1,30.13,SSW,204,6.0,9.0,71,0.00,,OVC OVC///CB,0.00,WUHU216DAVISVP2,2013-05-30 13:58:00,
2013-05-30 10:03:00,77.6,67.8,30.13,WSW,243,6.0,10.0,71,0.00,,OVC OVC///CB,0.00,WUHU216DAVISVP2,2013-05-30 14:03:00,
2013-05-30 10:08:00,77.7,67.9,30.13,WNW,293,2.0,10.0,71,0.00,,OVC OVC///CB,0.00,WUHU216DAVISVP2,2013-05-30 14:08:00,
2013-05-30 10:13:00,78.1,68.3,30.13,SW,226,1.0,10.0,71,0.00,,OVC OVC///CB,0.00,WUHU216DAVISVP2,2013-05-30 14:13:00,
2013-05-30 10:18:00,78.4,67.8,30.13,South,179,8.0,11.0,69,0.00,,OVC OVC///CB,0.00,WUHU216DAVISVP2,2013-05-30 14:18:00,
2013-05-30 10:23:00,78.3,68.1,30.13,SW,235,4.0,11.0,70,0.00,,OVC OVC///CB,0.00,WUHU216DAVISVP2,2013-05-30 14:23:00,
2013-05-30 10:28:00,78.6,67.6,30.13,SW,226,4.0,11.0,68,0.00,,OVC OVC///CB,0.00,WUHU216DAVISVP2,2013-05-30 14:28:00,
2013-05-30 10:33:00,78.7,68.1,30.13,South,179,2.0,12.0,69,0.00,,OVC OVC///CB,0.00,WUHU216DAVISVP2,2013-05-30 14:33:00,
2013-05-30 10:38:00,78.8,67.3,30.13,SSW,203,11.0,12.0,67,0.00,,OVC OVC///CB,0.00,WUHU216DAVISVP2,2013-05-30 14:38:00,
2013-05-30 10:43:00,79.1,68.0,30.13,South,191,4.0,12.0,68,0.00,,OVC OVC///CB,0.00,WUHU216DAVISVP2,2013-05-30 14:43:00,
2013-05-30 10:48:00,79.4,67.9,30.13,WSW,250,3.0,12.0,67,0.00,,OVC OVC///CB,0.00,WUHU216DAVISVP2,2013-05-30 14:48:00,
2013-05-30 10:53:00,79.6,67.2,30.13,SW,226,3.0,12.0,65,0.00,,OVC OVC///CB,0.00,WUHU216DAVISVP2,2013-05-30 14:53:00,
2013-05-30 10:58:00,80.2,66.9,30.13,WSW,238,7.0,12.0,63,0.00,,OVC OVC///CB,0.00,WUHU216DAVISVP2,2013-05-30 14:58:00,
2013-05-30 11:03:00,80.2,66.9,30.12,WSW,248,6.0,13.0,63,0.00,,OVC OVC///CB,0.00,WUHU216DAVISVP2,2013-05-30 15:03:00,
2013-05-30 11:08:00,80.5,67.2,30.13,WSW,255,3.0,13.0,63,0.00,,OVC OVC///CB,0.00,WUHU216DAVISVP2,2013-05-30 15:08:00,
2013-05-30 11:13:00,80.8,67.0,30.13,West,264,2.0,12.0,62,0.00,,OVC OVC///CB,0.00,WUHU216DAVISVP2,2013-05-30 15:13:00,
2013-05-30 11:18:00,80.8,66.1,30.12,SW,218,5.0,11.0,60,0.00,,OVC OVC///CB,0.00,WUHU216DAVISVP2,2013-05-30 15:18:00,
2013-05-30 11:23:00,80.7,66.9,30.12,SSW,207,4.0,11.0,62,0.00,,OVC OVC///CB,0.00,WUHU216DAVISVP2,2013-05-30 15:23:00,
2013-05-30 11:28:00,81.0,67.2,30.12,SW,231,6.0,10.0,62,0.00,,OVC OVC///CB,0.00,WUHU216DAVISVP2,2013-05-30 15:28:00,
2013-05-30 11:33:00,81.2,66.9,30.12,SW,219,6.0,11.0,61,0.00,,OVC OVC///CB,0.00,WUHU216DAVISVP2,2013-05-30 15:33:00,
2013-05-30 11:38:00,81.2,66.9,30.12,SW,218,7.0,11.0,61,0.00,,OVC OVC///CB,0.00,WUHU216DAVISVP2,2013-05-30 15:38:00,
2013-05-30 11:43:00,81.2,66.9,30.12,WSW,256,3.0,12.0,61,0.00,,OVC OVC///CB,0.00,WUHU216DAVISVP2,2013-05-30 15:43:00,
2013-05-30 11:48:00,81.3,67.5,30.12,WSW,238,3.0,12.0,62,0.00,,OVC OVC///CB,0.00,WUHU216DAVISVP2,2013-05-30 15:48:00,
2013-05-30 11:53:00,81.7,67.4,30.12,SW,228,2.0,12.0,61,0.00,,OVC OVC///CB,0.00,WUHU216DAVISVP2,2013-05-30 15:53:00,
2013-05-30 11:58:00,81.9,67.1,30.12,South,173,2.0,12.0,60,0.00,,OVC OVC///CB,0.00,WUHU216DAVISVP2,2013-05-30 15:58:00,
2013-05-30 12:03:00,81.6,67.3,30.12,SW,222,5.0,10.0,61,0.00,,OVC OVC///CB,0.00,WUHU216DAVISVP2,2013-05-30 16:03:00,
2013-05-30 12:08:00,82.1,67.8,30.12,WNW,290,4.0,10.0,61,0.00,,OVC OVC///CB,0.00,WUHU216DAVISVP2,2013-05-30 16:08:00,
2013-05-30 12:13:00,82.5,67.7,30.11,WSW,240,2.0,10.0,60,0.00,,OVC OVC///CB,0.00,WUHU216DAVISVP2,2013-05-30 16:13:00,
2013-05-30 12:18:00,82.5,67.2,30.11,SW,214,6.0,13.0,59,0.00,,OVC OVC///CB,0.00,WUHU216DAVISVP2,2013-05-30 16:18:00,
2013-05-30 12:23:00,82.5,67.7,30.11,West,266,2.0,13.0,60,0.00,,OVC OVC///CB,0.00,WUHU216DAVISVP2,2013-05-30 16:23:00,
2013-05-30 12:28:00,82.4,67.6,30.11,SW,234,3.0,12.0,60,0.00,,OVC OVC///CB,0.00,WUHU216DAVISVP2,2013-05-30 16:28:00,
2013-05-30 12:33:00,83.0,68.1,30.11,SSW,212,1.0,12.0,60,0.00,,OVC OVC///CB,0.00,WUHU216DAVISVP2,2013-05-30 16:33:00,
2013-05-30 12:38:00,83.2,68.3,30.11,West,276,1.0,11.0,60,0.00,,OVC OVC///CB,0.00,WUHU216DAVISVP2,2013-05-30 16:38:00,
2013-05-30 12:43:00,83.5,68.1,30.11,SW,235,2.0,11.0,59,0.00,,OVC OVC///CB,0.00,WUHU216DAVISVP2,2013-05-30 16:43:00,
2013-05-30 12:48:00,83.7,68.8,30.11,SSW,194,3.0,10.0,60,0.00,,OVC OVC///CB,0.00,WUHU216DAVISVP2,2013-05-30 16:48:00,
2013-05-30 12:53:00,83.7,69.3,30.11,South,190,5.0,10.0,61,0.00,,OVC OVC///CB,0.00,WUHU216DAVISVP2,2013-05-30 16:53:00,
2013-05-30 12:58:00,83.6,68.7,30.11,SSW,210,2.0,10.0,60,0.00,,OVC OVC///CB,0.00,WUHU216DAVISVP2,2013-05-30 16:58:00,
2013-05-30 13:03:00,83.7,68.8,30.10,WSW,239,4.0,12.0,60,0.00,,OVC OVC///CB,0.00,WUHU216DAVISVP2,2013-05-30 17:03:00,
2013-05-30 13:08:00,83.4,69.0,30.10,West,274,3.0,12.0,61,0.00,,OVC OVC///CB,0.00,WUHU216DAVISVP2,2013-05-30 17:08:00,
2013-05-30 13:13:00,83.7,68.3,30.10,SW,226,5.0,11.0,59,0.00,,OVC OVC///CB,0.00,WUHU216DAVISVP2,2013-05-30 17:13:00,
2013-05-30 13:18:00,83.8,68.9,30.10,SW,231,3.0,11.0,60,0.00,,OVC OVC///CB,0.00,WUHU216DAVISVP2,2013-05-30 17:18:00,
2013-05-30 13:23:00,84.4,69.5,30.10,SW,224,6.0,12.0,60,0.00,,OVC OVC///CB,0.00,WUHU216DAVISVP2,2013-05-30 17:23:00,
2013-05-30 13:28:00,84.4,67.9,30.10,SW,217,1.0,15.0,57,0.00,,OVC OVC///CB,0.00,WUHU216DAVISVP2,2013-05-30 17:28:00,
2013-05-30 13:33:00,84.3,67.9,30.10,SW,217,7.0,15.0,57,0.00,,OVC OVC///CB,0.00,WUHU216DAVISVP2,2013-05-30 17:33:00,
2013-05-30 13:38:00,84.4,67.4,30.10,SW,233,5.0,14.0,56,0.00,,OVC OVC///CB,0.00,WUHU216DAVISVP2,2013-05-30 17:38:00,
2013-05-30 13:43:00,84.5,68.0,30.10,SW,218,5.0,13.0,57,0.00,,OVC OVC///CB,0.00,WUHU216DAVISVP2,2013-05-30 17:43:00,
2013-05-30 13:48:00,84.1,67.7,30.09,WSW,238,2.0,13.0,57,0.00,,OVC OVC///CB,0.00,WUHU216DAVISVP2,2013-05-30 17:48:00,
2013-05-30 13:53:00,84.5,67.5,30.09,SW,219,6.0,14.0,56,0.00,,OVC OVC///CB,0.00,WUHU216DAVISVP2,2013-05-30 17:53:00,
2013-05-30 13:58:00,85.3,67.7,30.09,SW,214,7.0,14.0,55,0.00,,OVC OVC///CB,0.00,WUHU216DAVISVP2,2013-05-30 17:58:00,
2013-05-30 14:03:00,85.6,68.0,30.09,West,271,5.0,14.0,55,0.00,,OVC OVC///CB,0.00,WUHU216DAVISVP2,2013-05-30 18:03:00,
2013-05-30 14:08:00,86.0,67.9,30.09,SW,221,9.0,16.0,54,0.00,,OVC OVC///CB,0.00,WUHU216DAVISVP2,2013-05-30 18:08:00,
2013-05-30 14:13:00,85.6,67.5,30.09,SW,233,2.0,16.0,54,0.00,,OVC OVC///CB,0.00,WUHU216DAVISVP2,2013-05-30 18:13:00,
2013-05-30 14:18:00,85.7,67.0,30.09,West,259,7.0,16.0,53,0.00,,OVC OVC///CB,0.00,WUHU216DAVISVP2,2013-05-30 18:18:00,
2013-05-30 14:23:00,85.4,68.4,30.09,SSW,207,7.0,16.0,56,0.00,,OVC OVC///CB,0.00,WUHU216DAVISVP2,2013-05-30 18:23:00,
2013-05-30 14:28:00,85.3,67.7,30.09,SW,214,3.0,13.0,55,0.00,,OVC OVC///CB,0.00,WUHU216DAVISVP2,2013-05-30 18:28:00,
2013-05-30 14:33:00,85.5,67.9,30.09,SW,235,1.0,13.0,55,0.00,,OVC OVC///CB,0.00,WUHU216DAVISVP2,2013-05-30 18:33:00,
2013-05-30 14:38:00,85.9,68.3,30.09,SSW,203,3.0,12.0,55,0.00,,OVC OVC///CB,0.00,WUHU216DAVISVP2,2013-05-30 18:38:00,
2013-05-30 14:43:00,85.8,67.7,30.09,SSW,194,6.0,15.0,54,0.00,,OVC OVC///CB,0.00,WUHU216DAVISVP2,2013-05-30 18:43:00,
2013-05-30 14:48:00,85.6,67.5,30.09,WSW,252,4.0,15.0,54,0.00,,OVC OVC///CB,0.00,WUHU216DAVISVP2,2013-05-30 18:48:00,
2013-05-30 14:53:00,85.9,68.3,30.09,WSW,250,2.0,14.0,55,0.00,,OVC OVC///CB,0.00,WUHU216DAVISVP2,2013-05-30 18:53:00,
2013-05-30 14:58:00,86.3,67.6,30.08,SW,219,4.0,14.0,53,0.00,,OVC OVC///CB,0.00,WUHU216DAVISVP2,2013-05-30 18:58:00,
2013-05-30 15:03:00,86.2,67.5,30.08,WSW,248,4.0,11.0,53,0.00,,OVC OVC///CB,0.00,WUHU216DAVISVP2,2013-05-30 19:03:00,
2013-05-30 15:08:00,86.5,68.9,30.08,SE,134,0.0,11.0,55,0.00,,OVC OVC///CB,0.00,WUHU216DAVISVP2,2013-05-30 19:08:00,
2013-05-30 15:13:00,86.6,67.3,30.08,SW,228,2.0,10.0,52,0.00,,OVC OVC///CB,0.00,WUHU216DAVISVP2,2013-05-30 19:13:00,
2013-05-30 15:18:00,86.4,67.1,30.08,SSE,168,9.0,10.0,52,0.00,,OVC OVC///CB,0.00,WUHU216DAVISVP2,2013-05-30 19:18:00,
2013-05-30 15:23:00,86.2,66.9,30.08,SE,139,3.0,10.0,52,0.00,,OVC OVC///CB,0.00,WUHU216DAVISVP2,2013-05-30 19:23:00,
2013-05-30 15:28:00,85.7,67.0,30.07,SW,218,2.0,10.0,53,0.00,,OVC OVC///CB,0.00,WUHU216DAVISVP2,2013-05-30 19:28:00,
2013-05-30 15:33:00,85.9,68.8,30.07,SW,217,1.0,10.0,56,0.00,,OVC OVC///CB,0.00,WUHU216DAVISVP2,2013-05-30 19:33:00,
2013-05-30 15:38:00,86.3,68.7,30.07,SW,214,3.0,12.0,55,0.00,,OVC OVC///CB,0.00,WUHU216DAVISVP2,2013-05-30 19:38:00,
2013-05-30 15:43:00,86.3,68.1,30.07,WSW,243,0.0,12.0,54,0.00,,OVC OVC///CB,0.00,WUHU216DAVISVP2,2013-05-30 19:43:00,
2013-05-30 15:48:00,86.9,67.6,30.07,SSW,197,9.0,12.0,52,0.00,,OVC OVC///CB,0.00,WUHU216DAVISVP2,2013-05-30 19:48:00,
2013-05-30 15:53:00,86.8,66.9,30.06,SW,232,3.0,12.0,51,0.00,,OVC OVC///CB,0.00,WUHU216DAVISVP2,2013-05-30 19:53:00,
2013-05-30 15:57:00,87.4,66.9,30.06,East,98,1.0,10.0,50,0.00,,OVC OVC///CB,0.00,WUHU216DAVISVP2,2013-05-30 19:57:00,
2013-05-30 16:02:00,87.2,67.9,30.06,SSW,207,3.0,9.0,52,0.00,,OVC OVC///CB,0.00,WUHU216DAVISVP2,2013-05-30 20:02:00,
2013-05-30 16:07:00,87.3,67.4,30.06,WSW,246,1.0,8.0,51,0.00,,OVC OVC///CB,0.00,WUHU216DAVISVP2,2013-05-30 20:07:00,
2013-05-30 16:12:00,87.7,65.9,30.06,WSW,250,2.0,12.0,48,0.00,,OVC OVC///CB,0.00,WUHU216DAVISVP2,2013-05-30 20:12:00,
2013-05-30 16:17:00,88.0,65.6,30.06,SW,224,3.0,12.0,47,0.00,,OVC OVC///CB,0.00,WUHU216DAVISVP2,2013-05-30 20:17:00,
2013-05-30 16:22:00,88.1,65.1,30.06,SSW,211,7.0,12.0,46,0.00,,OVC OVC///CB,0.00,WUHU216DAVISVP2,2013-05-30 20:22:00,
2013-05-30 16:27:00,87.7,65.3,30.06,SSW,210,5.0,12.0,47,0.00,,OVC OVC///CB,0.00,WUHU216DAVISVP2,2013-05-30 20:27:00,
2013-05-30 16:32:00,87.6,65.2,30.05,WSW,257,3.0,12.0,47,0.00,,OVC OVC///CB,0.00,WUHU216DAVISVP2,2013-05-30 20:32:00,
2013-05-30 16:37:00,87.8,64.1,30.05,West,266,7.0,12.0,45,0.00,,OVC OVC///CB,0.00,WUHU216DAVISVP2,2013-05-30 20:37:00,
2013-05-30 16:42:00,87.8,64.1,30.05,SW,219,10.0,13.0,45,0.00,,OVC OVC///CB,0.00,WUHU216DAVISVP2,2013-05-30 20:42:00,
2013-05-30 16:47:00,88.1,63.8,30.04,SW,233,4.0,14.0,44,0.00,,OVC OVC///CB,0.00,WUHU216DAVISVP2,2013-05-30 20:47:00,
2013-05-30 16:52:00,88.1,63.1,30.04,SSW,200,4.0,14.0,43,0.00,,OVC OVC///CB,0.00,WUHU216DAVISVP2,2013-05-30 20:52:00,
2013-05-30 16:57:00,88.5,63.5,30.04,WSW,241,5.0,14.0,43,0.00,,OVC OVC///CB,0.00,WUHU216DAVISVP2,2013-05-30 20:57:00,
2013-05-30 17:02:00,88.4,65.3,30.04,SW,232,3.0,14.0,46,0.00,,OVC OVC///CB,0.00,WUHU216DAVISVP2,2013-05-30 21:02:00,
2013-05-30 17:07:00,88.4,66.6,30.04,WSW,237,3.0,11.0,48,0.00,,OVC OVC///CB,0.00,WUHU216DAVISVP2,2013-05-30 21:07:00,
2013-05-30 17:12:00,89.1,67.8,30.04,South,173,2.0,11.0,49,0.00,,OVC OVC///CB,0.00,WUHU216DAVISVP2,2013-05-30 21:12:00,
2013-05-30 17:17:00,88.9,66.4,30.04,South,191,3.0,11.0,47,0.00,,OVC OVC///CB,0.00,WUHU216DAVISVP2,2013-05-30 21:17:00,
2013-05-30 17:22:00,88.5,67.3,30.04,SSE,160,3.0,16.0,49,0.00,,OVC OVC///CB,0.00,WUHU216DAVISVP2,2013-05-30 21:22:00,
2013-05-30 17:27:00,88.9,68.3,30.04,South,187,8.0,16.0,50,0.00,,OVC OVC///CB,0.00,WUHU216DAVISVP2,2013-05-30 21:27:00,
2013-05-30 17:32:00,88.7,66.2,30.04,WSW,242,5.0,16.0,47,0.00,,OVC OVC///CB,0.00,WUHU216DAVISVP2,2013-05-30 21:32:00,
2013-05-30 17:37:00,88.0,65.6,30.04,SSW,198,5.0,14.0,47,0.00,,OVC OVC///CB,0.00,WUHU216DAVISVP2,2013-05-30 21:37:00,
2013-05-30 17:42:00,88.1,66.9,30.03,WSW,248,2.0,14.0,49,0.00,,OVC OVC///CB,0.00,WUHU216DAVISVP2,2013-05-30 21:42:00,
2013-05-30 17:47:00,88.7,67.5,30.03,SSW,205,5.0,14.0,49,0.00,,OVC OVC///CB,0.00,WUHU216DAVISVP2,2013-05-30 21:47:00,
2013-05-30 17:52:00,88.7,68.1,30.03,South,184,1.0,10.0,50,0.00,,OVC OVC///CB,0.00,WUHU216DAVISVP2,2013-05-30 21:52:00,
2013-05-30 17:57:00,88.4,66.6,30.03,SW,229,1.0,13.0,48,0.00,,OVC OVC///CB,0.00,WUHU216DAVISVP2,2013-05-30 21:57:00,
2013-05-30 18:02:00,88.1,64.4,30.03,WSW,238,4.0,13.0,45,0.00,,OVC OVC///CB,0.00,WUHU216DAVISVP2,2013-05-30 22:02:00,
2013-05-30 18:07:00,87.4,65.7,30.03,SSW,196,2.0,13.0,48,0.00,,OVC OVC///CB,0.00,WUHU216DAVISVP2,2013-05-30 22:07:00,
2013-05-30 18:12:00,87.4,66.3,30.02,NE,53,7.0,13.0,49,0.00,,OVC OVC///CB,0.00,WUHU216DAVISVP2,2013-05-30 22:12:00,
2013-05-30 18:17:00,87.5,66.4,30.02,SSE,166,2.0,12.0,49,0.00,,OVC OVC///CB,0.00,WUHU216DAVISVP2,2013-05-30 22:17:00,
2013-05-30 18:22:00,87.6,67.1,30.02,SSW,203,3.0,12.0,50,0.00,,OVC OVC///CB,0.00,WUHU216DAVISVP2,2013-05-30 22:22:00,
2013-05-30 18:27:00,87.5,67.6,30.02,SSW,212,4.0,12.0,51,0.00,,OVC OVC///CB,0.00,WUHU216DAVISVP2,2013-05-30 22:27:00,
2013-05-30 18:32:00,87.3,66.8,30.02,South,186,1.0,11.0,50,0.00,,OVC OVC///CB,0.00,WUHU216DAVISVP2,2013-05-30 22:32:00,
2013-05-30 18:37:00,86.9,67.0,30.02,SW,232,0.0,11.0,51,0.00,,OVC OVC///CB,0.00,WUHU216DAVISVP2,2013-05-30 22:37:00,
2013-05-30 18:42:00,86.7,66.8,30.02,SSE,152,2.0,10.0,51,0.00,,OVC OVC///CB,0.00,WUHU216DAVISVP2,2013-05-30 22:42:00,
2013-05-30 18:47:00,86.2,66.4,30.02,SSW,212,4.0,12.0,51,0.00,,OVC OVC///CB,0.00,WUHU216DAVISVP2,2013-05-30 22:47:00,
2013-05-30 18:52:00,86.3,66.4,30.02,SSW,193,3.0,12.0,51,0.00,,OVC OVC///CB,0.00,WUHU216DAVISVP2,2013-05-30 22:52:00,
2013-05-30 18:57:00,86.2,66.4,30.02,South,180,4.0,12.0,51,0.00,,OVC OVC///CB,0.00,WUHU216DAVISVP2,2013-05-30 22:57:00,
2013-05-30 19:02:00,86.2,66.9,30.02,WSW,242,1.0,12.0,52,0.00,,OVC OVC///CB,0.00,WUHU216DAVISVP2,2013-05-30 23:02:00,
2013-05-30 19:07:00,85.9,66.1,30.02,SSW,198,3.0,12.0,51,0.00,,OVC OVC///CB,0.00,WUHU216DAVISVP2,2013-05-30 23:07:00,
2013-05-30 19:12:00,85.7,66.5,30.02,SW,226,1.0,12.0,52,0.00,,OVC OVC///CB,0.00,WUHU216DAVISVP2,2013-05-30 23:12:00,
2013-05-30 19:17:00,85.5,65.7,30.02,SSE,162,5.0,12.0,51,0.00,,OVC OVC///CB,0.00,WUHU216DAVISVP2,2013-05-30 23:17:00,
2013-05-30 19:22:00,85.2,66.0,30.02,SW,218,2.0,12.0,52,0.00,,OVC OVC///CB,0.00,WUHU216DAVISVP2,2013-05-30 23:22:00,
2013-05-30 19:27:00,84.9,65.7,30.02,SSW,201,2.0,12.0,52,0.00,,OVC OVC///CB,0.00,WUHU216DAVISVP2,2013-05-30 23:27:00,
2013-05-30 19:32:00,85.0,65.8,30.02,SSW,207,6.0,12.0,52,0.00,,OVC OVC///CB,0.00,WUHU216DAVISVP2,2013-05-30 23:32:00,
2013-05-30 19:37:00,85.0,66.4,30.02,SSW,203,4.0,12.0,53,0.00,,OVC OVC///CB,0.00,WUHU216DAVISVP2,2013-05-30 23:37:00,
2013-05-30 19:42:00,85.0,66.9,30.02,SSE,155,1.0,12.0,54,0.00,,OVC OVC///CB,0.00,WUHU216DAVISVP2,2013-05-30 23:42:00,
2013-05-30 19:47:00,85.0,66.9,30.02,SSW,194,1.0,7.0,54,0.00,,OVC OVC///CB,0.00,WUHU216DAVISVP2,2013-05-30 23:47:00,
2013-05-30 19:52:00,84.7,67.2,30.02,SSW,212,2.0,7.0,55,0.00,,OVC OVC///CB,0.00,WUHU216DAVISVP2,2013-05-30 23:52:00,
2013-05-30 19:57:00,84.3,66.8,30.02,SSW,207,1.0,7.0,55,0.00,,OVC OVC///CB,0.00,WUHU216DAVISVP2,2013-05-30 23:57:00,
2013-05-30 20:02:00,83.9,67.0,30.02,SSW,200,1.0,8.0,56,0.00,,OVC OVC///CB,0.00,WUHU216DAVISVP2,2013-05-31 00:02:00,
2013-05-30 20:07:00,83.6,67.2,30.02,SE,127,0.0,8.0,57,0.00,,OVC OVC///CB,0.00,WUHU216DAVISVP2,2013-05-31 00:07:00,
2013-05-30 20:12:00,83.3,66.9,30.02,South,190,3.0,8.0,57,0.00,,OVC OVC///CB,0.00,WUHU216DAVISVP2,2013-05-31 00:12:00,
2013-05-30 20:17:00,82.9,67.0,30.02,SSW,201,0.0,8.0,58,0.00,,OVC OVC///CB,0.00,WUHU216DAVISVP2,2013-05-31 00:17:00,
2013-05-30 20:22:00,82.4,67.1,30.03,SSW,204,1.0,8.0,59,0.00,,OVC OVC///CB,0.00,WUHU216DAVISVP2,2013-05-31 00:22:00,
2013-05-30 20:27:00,81.9,67.1,30.03,SSW,207,1.0,6.0,60,0.00,,OVC OVC///CB,0.00,WUHU216DAVISVP2,2013-05-31 00:27:00,
2013-05-30 20:32:00,81.4,66.6,30.03,SSW,203,0.0,6.0,60,0.00,,OVC OVC///CB,0.00,WUHU216DAVISVP2,2013-05-31 00:32:00,
2013-05-30 20:37:00,81.0,66.7,30.03,SSE,166,0.0,5.0,61,0.00,,OVC OVC///CB,0.00,WUHU216DAVISVP2,2013-05-31 00:37:00,
2013-05-30 20:42:00,80.6,66.8,30.02,South,188,0.0,4.0,62,0.00,,OVC OVC///CB,0.00,WUHU216DAVISVP2,2013-05-31 00:42:00,
2013-05-30 20:47:00,80.2,66.9,30.02,South,172,1.0,4.0,63,0.00,,OVC OVC///CB,0.00,WUHU216DAVISVP2,2013-05-31 00:47:00,
2013-05-30 20:52:00,79.8,67.0,30.03,SW,214,1.0,2.0,64,0.00,,OVC OVC///CB,0.00,WUHU216DAVISVP2,2013-05-31 00:52:00,
2013-05-30 20:57:00,79.5,67.1,30.02,SSW,205,1.0,2.0,65,0.00,,OVC OVC///CB,0.00,WUHU216DAVISVP2,2013-05-31 00:57:00,
2013-05-30 21:02:00,79.2,66.8,30.02,SSW,210,0.0,4.0,65,0.00,,OVC OVC///CB,0.00,WUHU216DAVISVP2,2013-05-31 01:02:00,
2013-05-30 21:07:00,78.9,67.0,30.03,SSW,200,0.0,4.0,66,0.00,,OVC OVC///CB,0.00,WUHU216DAVISVP2,2013-05-31 01:07:00,
2013-05-30 21:12:00,78.6,66.7,30.02,SSW,203,0.0,3.0,66,0.00,,OVC OVC///CB,0.00,WUHU216DAVISVP2,2013-05-31 01:12:00,
2013-05-30 21:17:00,78.3,66.8,30.02,SSW,204,0.0,4.0,67,0.00,,OVC OVC///CB,0.00,WUHU216DAVISVP2,2013-05-31 01:17:00,
2013-05-30 21:22:00,78.1,67.1,30.03,SSW,211,0.0,4.0,68,0.00,,OVC OVC///CB,0.00,WUHU216DAVISVP2,2013-05-31 01:22:00,
2013-05-30 21:27:00,77.7,66.7,30.03,SSW,200,0.0,4.0,68,0.00,,OVC OVC///CB,0.00,WUHU216DAVISVP2,2013-05-31 01:27:00,
2013-05-30 21:32:00,77.5,66.9,30.02,SW,217,0.0,4.0,69,0.00,,OVC OVC///CB,0.00,WUHU216DAVISVP2,2013-05-31 01:32:00,
2013-05-30 21:37:00,77.3,66.7,30.03,SSW,200,0.0,2.0,69,0.00,,OVC OVC///CB,0.00,WUHU216DAVISVP2,2013-05-31 01:37:00,
2013-05-30 21:42:00,77.2,66.6,30.03,SSW,198,2.0,2.0,69,0.00,,OVC OVC///CB,0.00,WUHU216DAVISVP2,2013-05-31 01:42:00,
2013-05-30 21:47:00,77.0,66.8,30.03,SSW,203,0.0,2.0,70,0.00,,OVC OVC///CB,0.00,WUHU216DAVISVP2,2013-05-31 01:47:00,
2013-05-30 21:52:00,76.8,66.6,30.03,SSW,203,0.0,2.0,70,0.00,,OVC OVC///CB,0.00,WUHU216DAVISVP2,2013-05-31 01:52:00,
2013-05-30 21:57:00,76.5,66.8,30.03,SSW,195,0.0,2.0,71,0.00,,OVC OVC///CB,0.00,WUHU216DAVISVP2,2013-05-31 01:57:00,
2013-05-30 22:02:00,76.4,66.7,30.03,SSE,160,0.0,2.0,71,0.00,,OVC OVC///CB,0.00,WUHU216DAVISVP2,2013-05-31 02:02:00,
2013-05-30 22:07:00,76.3,66.6,30.03,SSW,195,1.0,4.0,71,0.00,,OVC OVC///CB,0.00,WUHU216DAVISVP2,2013-05-31 02:07:00,
2013-05-30 22:12:00,76.3,66.6,30.03,SW,219,0.0,4.0,71,0.00,,OVC OVC///CB,0.00,WUHU216DAVISVP2,2013-05-31 02:12:00,
2013-05-30 22:17:00,76.2,66.5,30.03,SSW,204,1.0,4.0,71,0.00,,OVC OVC///CB,0.00,WUHU216DAVISVP2,2013-05-31 02:17:00,
2013-05-30 22:22:00,76.3,66.6,30.04,SSW,200,4.0,5.0,71,0.00,,OVC OVC///CB,0.00,WUHU216DAVISVP2,2013-05-31 02:22:00,
2013-05-30 22:27:00,76.4,66.3,30.04,SSW,207,2.0,6.0,70,0.00,,OVC OVC///CB,0.00,WUHU216DAVISVP2,2013-05-31 02:27:00,
2013-05-30 22:32:00,76.3,66.2,30.04,SW,225,0.0,6.0,70,0.00,,OVC OVC///CB,0.00,WUHU216DAVISVP2,2013-05-31 02:32:00,
2013-05-30 22:37:00,76.1,66.4,30.04,SSW,195,2.0,6.0,71,0.00,,OVC OVC///CB,0.00,WUHU216DAVISVP2,2013-05-31 02:37:00,
2013-05-30 22:42:00,76.0,66.3,30.04,SSW,212,0.0,6.0,71,0.00,,OVC OVC///CB,0.00,WUHU216DAVISVP2,2013-05-31 02:42:00,
2013-05-30 22:47:00,75.7,66.4,30.04,SSW,204,1.0,3.0,72,0.00,,OVC OVC///CB,0.00,WUHU216DAVISVP2,2013-05-31 02:47:00,
2013-05-30 22:52:00,75.4,66.1,30.04,SW,221,1.0,3.0,72,0.00,,OVC OVC///CB,0.00,WUHU216DAVISVP2,2013-05-31 02:52:00,
2013-05-30 22:57:00,75.2,65.9,30.04,SW,230,0.0,2.0,72,0.00,,OVC OVC///CB,0.00,WUHU216DAVISVP2,2013-05-31 02:57:00,
2013-05-30 23:02:00,75.1,66.2,30.04,SSW,212,0.0,2.0,73,0.00,,OVC OVC///CB,0.00,WUHU216DAVISVP2,2013-05-31 03:02:00,
2013-05-30 23:07:00,74.9,66.0,30.04,SSW,210,0.0,2.0,73,0.00,,OVC OVC///CB,0.00,WUHU216DAVISVP2,2013-05-31 03:07:00,
2013-05-30 23:12:00,74.6,65.7,30.04,SSW,205,0.0,2.0,73,0.00,,OVC OVC///CB,0.00,WUHU216DAVISVP2,2013-05-31 03:12:00,
2013-05-30 23:17:00,74.1,65.6,30.04,SSW,205,0.0,2.0,74,0.00,,OVC OVC///CB,0.00,WUHU216DAVISVP2,2013-05-31 03:17:00,
2013-05-30 23:22:00,73.7,65.6,30.04,SSW,205,0.0,2.0,75,0.00,,OVC OVC///CB,0.00,WUHU216DAVISVP2,2013-05-31 03:22:00,
2013-05-30 23:27:00,73.5,65.8,30.04,SSW,205,0.0,1.0,76,0.00,,OVC OVC///CB,0.00,WUHU216DAVISVP2,2013-05-31 03:27:00,
2013-05-30 23:32:00,73.0,65.6,30.04,SSW,205,0.0,1.0,77,0.00,,OVC OVC///CB,0.00,WUHU216DAVISVP2,2013-05-31 03:32:00,
2013-05-30 23:37:00,72.9,65.5,30.04,SSW,208,0.0,1.0,77,0.00,,OVC OVC///CB,0.00,WUHU216DAVISVP2,2013-05-31 03:37:00,
2013-05-30 23:42:00,72.7,65.7,30.04,SSW,208,0.0,0.0,78,0.00,,OVC OVC///CB,0.00,WUHU216DAVISVP2,2013-05-31 03:42:00,
2013-05-30 23:47:00,72.4,65.4,30.04,SSW,208,0.0,0.0,78,0.00,,OVC OVC///CB,0.00,WUHU216DAVISVP2,2013-05-31 03:47:00,
2013-05-30 23:52:00,72.0,65.4,30.04,SSW,208,0.0,0.0,79,0.00,,OVC OVC///CB,0.00,WUHU216DAVISVP2,2013-05-31 03:52:00,
2013-05-30 23:57:00,71.5,65.2,30.04,SSW,208,0.0,0.0,80,0.00,,OVC OVC///CB,0.00,WUHU216DAVISVP2,2013-05-31 03:57:00,